Find Starlink 4459

NORAD ID: 53670 Int'l Des: 2022-105 Owner: SPXS Country: US Constellation: starlink operational
LEOCIRCULARRETROGRADESSO

当前视图

正在加载3D地球...

About Starlink 4459

Starlink 4459 (NORAD 53670) is a starlink constellation satellite (v1.5) launched Aug 31, 2022 by SPXS of US. It operates in LEO, CIRCULAR, RETROGRADE, SSO orbit with a mass of 300.00 kg.

即将过境

Passes for default location (London). Set your location on the main map for personalized predictions.

高度历史

Loading altitude history...

两行轨道根数

1 53670U 22105Y 26265.38420518 .00000800 00000-0 27109-4 0 9994
2 53670 97.2845 142.0181 0001622 93.5080 266.6348 15.33437169223027
Epoch: Sep 22, 2026 • Age: 15 hours

当前状态

高度 482.0 km
远地点 / 近地点 N/A
速度 7.62 km/s
星下点 -40.81°S, 49.68°W
发射日期 Aug 31, 2022
运行时间 4 years
类型 internet

技术详情

分类 Payload
质量 300.00 kg
干质量 290.00 kg
长度 0.20 m
跨度 9.00 m
形状 ? Box + pan
制造商 SPXS
平台类型 Starlink
阶段状态 In Orbit
所有者/国家 SPXS/US

Most Searched